Skip Page Navigation
NASA JPL Caltech
NASA Logo - Jet Propulsion Laboratory + View the NASA Portal
+ Near-Earth Object (NEO) Program
Search JPL
JPL Home Earth Solar System Stars & Galaxies Technology
JPL Solar System Dynamics
BODIES ORBITS EPHEMERIDES TOOLS PHYSICAL DATA DISCOVERY FAQ SITE MAP
JPL Small-Body Database Browser
Search: [ help ]  
6374 Beslan (1986 PY4)
Classification: Main-belt Asteroid          SPK-ID: 2006374
Ephemeris | Orbit Diagram | Orbital Elements | Physical Parameters | Discovery Circumstances ]

[ show orbit diagram ]
Orbital Elements at Epoch 2457000.5 (2014-Dec-09.0) TDB
Reference: JPL 13 (heliocentric ecliptic J2000)
 Element Value Uncertainty (1-sigma)   Units 
e .08175711615174436 7.7709e-08  
a 3.167905323884757 3.6766e-08 AU
q 2.908906520362182 2.6312e-07 AU
i 9.742121637946394 7.4255e-06 deg
node 163.7984915325465 3.1675e-05 deg
peri 213.8559419732076 5.1889e-05 deg
M 331.9268657528396 4.4144e-05 deg
tp 2457161.099844061261
(2015-May-18.59984406)
0.00025318 JED
period 2059.475915764626
5.64
3.5853e-05
9.816e-08
d
yr
n .1748017528363967 3.0431e-09 deg/d
Q 3.426904127407333 3.9772e-08 AU
  Orbit Determination Parameters
   # obs. used (total)      1110  
   data-arc span      10315 days (28.24 yr)  
   first obs. used      1986-08-08  
   last obs. used      2014-11-04  
   planetary ephem.      DE431  
   SB-pert. ephem.      SB431-BIG16  
   condition code      0  
   fit RMS      .47609  
   data source      ORB  
   producer      Otto Matic  
   solution date      2014-Nov-10 13:01:36  

Additional Information
 Earth MOID = 1.91494 AU 
 T_jup = 3.175 
[ show covariance matrix ]

Ephemeris | Orbit Diagram | Orbital Elements | Physical Parameters | Discovery Circumstances ]

Physical Parameter Table
Parameter Symbol Value Units Sigma Reference Notes
absolute magnitude H 12.1 mag n/a MPO267733  

6374 Beslan           Discovered 1986 Aug. 8 by L. I. Chernykh at the Crimean Astrophysical Observatory.
The North Ossetian town of Beslan was the site of an unprovoked and unspeakable attack on schoolchildren in Sept. 2004.
NOTE: some special characters may not display properly (any characters within {} are an attempt to place the proper accent above a character)
Reference: 20041126/MPCPages.arcLast Updated: 2004-12-06

Alternate Designations
 1986 PY4 = 1992 QK2 = 1993 XS2 
Ephemeris | Orbit Diagram | Orbital Elements | Physical Parameters | Discovery Circumstances ]
ABOUT SSD CREDITS/AWARDS PRIVACY/COPYRIGHT GLOSSARY LINKS
FirstGov 2014-Nov-22 15:26 UT
(server date/time)  
NASA Home Page
Site Manager:   Donald K. Yeomans
Webmaster  Alan B. Chamberlin